Flag for U.S.A. Weather past 2 weeks in Hartford, Connecticut, U.S.A.

Now
74 °F

Passing clouds.


Feels Like: 72 °F
Forecast: 71 / 88 °F
Wind: 5 mph from South

Location: Hartford-Brainard Airport

Current Time: Sep 2, 2014 at 3:40:37 AM

Latest Report: Sep 2, 2014 at 2:53 AM


Visibility: 10 mi

Pressure: 29.89 "Hg

Humidity: 91%

Dew point: 71 °F

Location of HartfordLocation

Historic Weather in Hartford — Graph

°F

Hartford temperature yesterday

Maximum temperature yesterday: 86 °F (at 2:53 PM)
Minimum temperature yesterday: 69 °F (at 4:04 AM)
Average temperature yesterday: 76 °F

Past Weeks' High & Low Weather Summary

 TemperatureHumidityPressure
High88 °F (Aug 27, 1:53 PM)97% (Aug 25, 6:53 AM)30.29 "Hg (Aug 25, 6:53 AM)
Low52 °F (Aug 19, 5:53 AM)33% (Aug 25, 1:53 PM)29.80 "Hg (Aug 18, 2:53 PM)
Average70 °F71%30.03 "Hg
* Reported Aug 18 1:53 AM — Sep 2 1:53 AM, Hartford, Weather by CustomWeather, © 2014

Note: Actual official high and low records may vary slightly from our data, if they occured in-between our weather recording intervals... More about our weather records

Advertising

Hartford weather history for previous 24 hours

 ConditionsComfort  
Time TempWeatherWind HumidityBarometerVisibility
1:53 AM
Sep 2
75 °FPassing clouds.5 mph88%29.91 "Hg10 mi
12:53 AM75 °FOvercast.6 mph88%29.92 "Hg10 mi
11:53 PM
Sep 1
76 °FOvercast.5 mph85%29.93 "Hg10 mi
10:53 PM76 °FPassing clouds.5 mph85%29.94 "Hg10 mi
9:53 PM77 °FPassing clouds.3 mph82%29.94 "Hg10 mi
8:53 PM77 °FClear.6 mph82%29.93 "Hg10 mi
7:53 PM79 °FPassing clouds.6 mph77%29.91 "Hg10 mi
6:53 PM83 °FSunny.7 mph68%29.90 "Hg10 mi
5:53 PM82 °FMostly cloudy.5 mph72%29.90 "Hg10 mi
4:53 PM85 °FBroken clouds.5 mph57%29.91 "Hg10 mi
3:53 PM85 °FBroken clouds.6 mph57%29.91 "Hg10 mi
2:53 PM86 °FPassing clouds.5 mph55%29.93 "Hg10 mi
1:53 PM83 °FScattered clouds.No wind63%29.94 "Hg10 mi
12:53 PM83 °FScattered clouds.6 mph63%29.95 "Hg10 mi
11:53 AM81 °FSunny.6 mph67%29.97 "Hg10 mi
10:53 AM79 °FSunny.No wind74%29.98 "Hg10 mi
9:53 AM77 °FPassing clouds.5 mph82%29.98 "Hg10 mi
8:53 AM74 °FPassing clouds.No wind85%29.98 "Hg10 mi
7:53 AM73 °FFog.5 mph94%29.99 "Hg5 mi
6:53 AM71 °FFog.No wind96%29.99 "Hg2 mi
6:02 AM70 °FFog.3 mph97%29.99 "Hg1 mi
6:00 AM70 °FFog.No wind97%29.99 "Hg1 mi
5:02 AM70 °FFog.No wind97%29.98 "Hg2 mi
4:53 AM70 °FFog.No wind97%29.98 "Hg5 mi
4:04 AM69 °FFog.No wind96%29.97 "Hg0 mi
3:57 AM71 °FFog.No wind93%29.97 "Hg1 mi
Weather by CustomWeather, © 2014

See weather overviewHow to use our weather pages